Location: Newark
(43.0000°N, 1.6781°W)
Time: 00:18:52
(UTC+00:00)

deb Explorer IX - Pass Details

Date: 26 April 2021
Orbit: 541 x 1098 km, 38.8° (Epoch: 12 May)

Event Time Altitude Azimuth Distance (km) Brightness Sun altitude
Rises 07:02:40 0° 263° (W) 2,690 ? 19.8°
Reaches altitude 10° 07:04:54 10° 258° (WSW) 1,814 ? 20.2°
Maximum altitude 07:08:51 47° 184° (S) 757 ? 20.9°
Drops below altitude 10° 07:13:10 10° 110° (ESE) 1,976 ? 21.7°
Sets 07:15:41 0° 104° (ESE) 2,962 ? 22.2°
